Time,TemperatureF,DewpointF,PressureIn,WindDirection,WindDirectionDegrees,WindSpeedMPH,WindSpeedGustMPH,Humidity,HourlyPrecipIn,Conditions,Clouds,dailyrainin,SoftwareType,DateUTC
2013-06-07 00:02:00,59.0,46.0,29.99,North,355,0.0,-999.0,62,-99.99,,,-99.99,,2013-06-07 07:02:00,
2013-06-07 00:12:00,59.0,46.0,29.99,North,355,0.0,-999.0,62,-99.99,,,-99.99,,2013-06-07 07:12:00,
2013-06-07 00:22:00,59.0,46.0,29.98,North,355,0.0,-999.0,62,-99.99,,,-99.99,,2013-06-07 07:22:00,
2013-06-07 00:32:00,58.0,45.0,29.99,North,355,0.0,-999.0,62,-99.99,,,-99.99,,2013-06-07 07:32:00,
2013-06-07 00:42:00,58.0,45.0,29.99,North,355,0.0,-999.0,62,-99.99,,,-99.99,,2013-06-07 07:42:00,
2013-06-07 00:52:00,58.0,45.0,29.98,North,355,0.0,-999.0,63,-99.99,,,-99.99,,2013-06-07 07:52:00,
2013-06-07 01:02:00,58.0,46.0,29.99,North,355,0.0,-999.0,64,-99.99,,,-99.99,,2013-06-07 08:02:00,
2013-06-07 01:12:00,58.0,46.0,29.99,North,355,0.0,-999.0,64,-99.99,,,-99.99,,2013-06-07 08:12:00,
2013-06-07 01:22:00,58.0,45.0,29.98,North,355,0.0,-999.0,61,-99.99,,,-99.99,,2013-06-07 08:22:00,
2013-06-07 01:32:00,58.0,45.0,29.98,North,355,0.0,-999.0,62,-99.99,,,-99.99,,2013-06-07 08:32:00,
2013-06-07 01:42:00,58.0,45.0,29.98,North,355,0.0,-999.0,62,-99.99,,,-99.99,,2013-06-07 08:42:00,
2013-06-07 01:52:00,58.0,45.0,29.98,North,355,0.0,-999.0,61,-99.99,,,-99.99,,2013-06-07 08:52:00,
2013-06-07 02:02:00,57.0,44.0,29.99,North,355,0.0,-999.0,62,-99.99,,,-99.99,,2013-06-07 09:02:00,
2013-06-07 02:11:00,57.0,44.0,29.99,North,355,0.0,-999.0,62,-99.99,,,-99.99,,2013-06-07 09:11:00,
2013-06-07 02:22:00,58.0,45.0,29.99,North,355,0.0,-999.0,63,-99.99,,,-99.99,,2013-06-07 09:22:00,
2013-06-07 02:32:00,57.0,44.0,29.98,North,355,0.0,-999.0,61,-99.99,,,-99.99,,2013-06-07 09:32:00,
2013-06-07 02:43:00,57.0,44.0,29.98,North,355,0.0,-999.0,61,-99.99,,,-99.99,,2013-06-07 09:43:00,
2013-06-07 02:53:00,58.0,45.0,30.00,North,355,0.0,-999.0,61,-99.99,,,-99.99,,2013-06-07 09:53:00,
2013-06-07 03:02:00,58.0,45.0,29.99,North,355,0.0,-999.0,63,-99.99,,,-99.99,,2013-06-07 10:02:00,
2013-06-07 03:12:00,58.0,45.0,29.99,North,355,0.0,-999.0,63,-99.99,,,-99.99,,2013-06-07 10:12:00,
2013-06-07 03:22:00,57.0,45.0,30.00,North,355,0.0,-999.0,64,-99.99,,,-99.99,,2013-06-07 10:22:00,
2013-06-07 03:32:00,57.0,45.0,30.01,North,355,0.0,-999.0,64,-99.99,,,-99.99,,2013-06-07 10:32:00,
2013-06-07 03:42:00,57.0,45.0,30.01,North,355,0.0,-999.0,64,-99.99,,,-99.99,,2013-06-07 10:42:00,
2013-06-07 03:52:00,57.0,45.0,30.00,North,355,0.0,-999.0,65,-99.99,,,-99.99,,2013-06-07 10:52:00,
2013-06-07 04:02:00,57.0,47.0,30.00,SE,134,0.0,-999.0,68,-99.99,,,-99.99,,2013-06-07 11:02:00,
2013-06-07 04:12:00,57.0,47.0,30.00,SE,134,0.0,-999.0,68,-99.99,,,-99.99,,2013-06-07 11:12:00,
2013-06-07 04:22:00,57.0,48.0,30.01,SE,133,0.0,-999.0,73,-99.99,,,-99.99,,2013-06-07 11:22:00,
2013-06-07 04:32:00,57.0,48.0,30.01,SE,134,0.0,-999.0,73,-99.99,,,-99.99,,2013-06-07 11:32:00,
2013-06-07 04:42:00,57.0,48.0,30.01,SE,134,0.0,-999.0,73,-99.99,,,-99.99,,2013-06-07 11:42:00,
2013-06-07 04:52:00,57.0,49.0,30.01,SE,134,0.0,-999.0,74,-99.99,,,-99.99,,2013-06-07 11:52:00,
2013-06-07 05:02:00,57.0,50.0,30.01,South,178,0.0,-999.0,77,-99.99,,,-99.99,,2013-06-07 12:02:00,
2013-06-07 05:12:00,57.0,50.0,30.01,South,178,0.0,-999.0,77,-99.99,,,-99.99,,2013-06-07 12:12:00,
2013-06-07 05:22:00,57.0,51.0,30.01,South,178,2.0,-999.0,79,-99.99,,,-99.99,,2013-06-07 12:22:00,
2013-06-07 05:32:00,57.0,51.0,30.01,South,178,0.0,-999.0,79,-99.99,,,-99.99,,2013-06-07 12:32:00,
2013-06-07 05:42:00,57.0,51.0,30.01,South,178,0.0,-999.0,79,-99.99,,,-99.99,,2013-06-07 12:42:00,
2013-06-07 05:52:00,57.0,51.0,30.01,South,178,0.0,-999.0,79,-99.99,,,-99.99,,2013-06-07 12:52:00,
2013-06-07 06:02:00,57.0,51.0,30.02,South,178,1.0,-999.0,79,-99.99,,,-99.99,,2013-06-07 13:02:00,
2013-06-07 06:12:00,57.0,51.0,30.02,South,178,1.0,-999.0,79,-99.99,,,-99.99,,2013-06-07 13:12:00,
2013-06-07 06:22:00,57.0,50.0,30.02,South,191,2.0,-999.0,78,-99.99,,,-99.99,,2013-06-07 13:22:00,
2013-06-07 06:32:00,56.0,50.0,30.02,SSE,149,3.0,-999.0,79,-99.99,,,-99.99,,2013-06-07 13:32:00,
2013-06-07 06:42:00,56.0,50.0,30.02,SSE,149,3.0,-999.0,79,-99.99,,,-99.99,,2013-06-07 13:42:00,
2013-06-07 06:52:00,56.0,50.0,30.01,SSE,152,3.0,-999.0,80,-99.99,,,-99.99,,2013-06-07 13:52:00,
2013-06-07 07:02:00,56.0,50.0,30.01,South,178,0.0,-999.0,81,-99.99,,,-99.99,,2013-06-07 14:02:00,
2013-06-07 07:12:00,56.0,50.0,30.01,South,178,0.0,-999.0,81,-99.99,,,-99.99,,2013-06-07 14:12:00,
2013-06-07 07:22:00,57.0,51.0,30.02,SSE,168,2.0,-999.0,81,-99.99,,,-99.99,,2013-06-07 14:22:00,
2013-06-07 07:32:00,57.0,51.0,30.01,South,170,2.0,-999.0,81,-99.99,,,-99.99,,2013-06-07 14:32:00,
2013-06-07 07:42:00,57.0,51.0,30.01,South,170,2.0,-999.0,81,-99.99,,,-99.99,,2013-06-07 14:42:00,
2013-06-07 07:52:00,57.0,51.0,30.02,SSE,165,2.0,-999.0,81,-99.99,,,-99.99,,2013-06-07 14:52:00,
2013-06-07 08:02:00,58.0,50.0,30.02,South,186,2.0,-999.0,76,-99.99,,,-99.99,,2013-06-07 15:02:00,
2013-06-07 08:12:00,58.0,50.0,30.02,South,186,2.0,-999.0,76,-99.99,,,-99.99,,2013-06-07 15:12:00,
2013-06-07 08:22:00,58.0,49.0,30.02,South,171,2.0,-999.0,73,-99.99,,,-99.99,,2013-06-07 15:22:00,
2013-06-07 08:33:00,59.0,50.0,30.02,SSE,163,3.0,-999.0,71,-99.99,,,-99.99,,2013-06-07 15:33:00,
2013-06-07 08:43:00,59.0,50.0,30.02,SSE,163,3.0,-999.0,71,-99.99,,,-99.99,,2013-06-07 15:43:00,
2013-06-07 08:53:00,59.0,48.0,30.03,South,179,4.0,-999.0,68,-99.99,,,-99.99,,2013-06-07 15:53:00,
2013-06-07 09:03:00,59.0,48.0,30.03,SW,230,3.0,-999.0,66,-99.99,,,-99.99,,2013-06-07 16:03:00,
2013-06-07 09:12:00,59.0,48.0,30.03,SW,230,3.0,-999.0,66,-99.99,,,-99.99,,2013-06-07 16:12:00,
2013-06-07 09:22:00,59.0,48.0,30.02,SSE,150,4.0,-999.0,67,-99.99,,,-99.99,,2013-06-07 16:22:00,
2013-06-07 09:32:00,60.0,48.0,30.03,South,169,4.0,-999.0,64,-99.99,,,-99.99,,2013-06-07 16:32:00,
2013-06-07 09:42:00,60.0,48.0,30.03,South,169,4.0,-999.0,64,-99.99,,,-99.99,,2013-06-07 16:42:00,
2013-06-07 09:52:00,60.0,47.0,30.03,SE,137,4.0,-999.0,62,-99.99,,,-99.99,,2013-06-07 16:52:00,
2013-06-07 10:02:00,60.0,47.0,30.03,SE,139,3.0,-999.0,61,-99.99,,,-99.99,,2013-06-07 17:02:00,
2013-06-07 10:12:00,60.0,47.0,30.03,SE,139,3.0,-999.0,61,-99.99,,,-99.99,,2013-06-07 17:12:00,
2013-06-07 10:22:00,61.0,46.0,30.03,SW,236,4.0,-999.0,58,-99.99,,,-99.99,,2013-06-07 17:22:00,
2013-06-07 10:32:00,61.0,47.0,30.03,SW,217,4.0,-999.0,60,-99.99,,,-99.99,,2013-06-07 17:32:00,
2013-06-07 10:42:00,61.0,47.0,30.03,SW,217,4.0,-999.0,60,-99.99,,,-99.99,,2013-06-07 17:42:00,
2013-06-07 10:52:00,61.0,47.0,30.03,SSE,167,4.0,-999.0,59,-99.99,,,-99.99,,2013-06-07 17:52:00,
2013-06-07 11:03:00,62.0,47.0,30.05,SSE,164,3.0,-999.0,59,-99.99,,,-99.99,,2013-06-07 18:03:00,
2013-06-07 11:12:00,62.0,47.0,30.05,SSE,164,3.0,-999.0,59,-99.99,,,-99.99,,2013-06-07 18:12:00,
2013-06-07 11:22:00,62.0,47.0,30.05,South,178,4.0,-999.0,57,-99.99,,,-99.99,,2013-06-07 18:22:00,
2013-06-07 11:34:00,62.0,47.0,30.05,South,188,4.0,-999.0,57,-99.99,,,-99.99,,2013-06-07 18:34:00,
2013-06-07 11:42:00,62.0,47.0,30.05,South,188,4.0,-999.0,57,-99.99,,,-99.99,,2013-06-07 18:42:00,
2013-06-07 11:54:00,63.0,49.0,30.05,ESE,123,3.0,-999.0,60,-99.99,,,-99.99,,2013-06-07 18:54:00,
2013-06-07 12:03:00,63.0,48.0,30.05,SSE,150,2.0,-999.0,57,-99.99,,,-99.99,,2013-06-07 19:03:00,
2013-06-07 12:12:00,63.0,48.0,30.05,SSE,150,2.0,-999.0,57,-99.99,,,-99.99,,2013-06-07 19:12:00,
2013-06-07 12:23:00,63.0,48.0,30.05,South,173,2.0,-999.0,57,-99.99,,,-99.99,,2013-06-07 19:23:00,
2013-06-07 12:32:00,64.0,48.0,30.05,SSE,164,1.0,-999.0,57,-99.99,,,-99.99,,2013-06-07 19:32:00,
2013-06-07 12:43:00,64.0,48.0,30.05,SSE,164,1.0,-999.0,57,-99.99,,,-99.99,,2013-06-07 19:43:00,
2013-06-07 12:55:00,64.0,47.0,30.05,South,173,3.0,-999.0,53,-99.99,,,-99.99,,2013-06-07 19:55:00,
2013-06-07 13:02:00,65.0,47.0,30.05,SSE,162,2.0,-999.0,53,-99.99,,,-99.99,,2013-06-07 20:02:00,
2013-06-07 13:12:00,65.0,47.0,30.05,SSE,162,2.0,-999.0,53,-99.99,,,-99.99,,2013-06-07 20:12:00,
2013-06-07 13:22:00,65.0,48.0,30.05,South,172,3.0,-999.0,54,-99.99,,,-99.99,,2013-06-07 20:22:00,
2013-06-07 13:33:00,65.0,50.0,30.05,SSW,194,3.0,-999.0,59,-99.99,,,-99.99,,2013-06-07 20:33:00,
2013-06-07 13:43:00,65.0,50.0,30.05,SSW,194,3.0,-999.0,59,-99.99,,,-99.99,,2013-06-07 20:43:00,
2013-06-07 13:57:00,65.0,51.0,30.05,SSW,198,2.0,-999.0,61,-99.99,,,-99.99,,2013-06-07 20:57:00,
2013-06-07 14:24:00,65.0,52.0,30.05,South,189,2.0,-999.0,62,-99.99,,,-99.99,,2013-06-07 21:24:00,
2013-06-07 14:43:00,65.0,53.0,30.06,South,188,0.0,-999.0,65,-99.99,,,-99.99,,2013-06-07 21:43:00,
2013-06-07 14:57:00,65.0,53.0,30.05,East,94,1.0,-999.0,64,-99.99,,,-99.99,,2013-06-07 21:57:00,
2013-06-07 15:03:00,65.0,54.0,30.05,SSE,167,1.0,-999.0,67,-99.99,,,-99.99,,2013-06-07 22:03:00,
2013-06-07 15:14:00,65.0,54.0,30.05,SSE,167,1.0,-999.0,67,-99.99,,,-99.99,,2013-06-07 22:14:00,
2013-06-07 15:24:00,66.0,54.0,30.05,South,171,1.0,-999.0,65,-99.99,,,-99.99,,2013-06-07 22:24:00,
2013-06-07 15:33:00,67.0,55.0,30.05,South,169,2.0,-999.0,66,-99.99,,,-99.99,,2013-06-07 22:33:00,
2013-06-07 15:43:00,67.0,55.0,30.05,South,169,2.0,-999.0,66,-99.99,,,-99.99,,2013-06-07 22:43:00,
2013-06-07 15:57:00,67.0,54.0,30.06,NE,49,2.0,-999.0,64,-99.99,,,-99.99,,2013-06-07 22:57:00,
2013-06-07 16:03:00,67.0,55.0,30.06,WSW,252,2.0,-999.0,66,-99.99,,,-99.99,,2013-06-07 23:03:00,
2013-06-07 16:13:00,67.0,55.0,30.06,WSW,252,2.0,-999.0,66,-99.99,,,-99.99,,2013-06-07 23:13:00,
2013-06-07 16:24:00,67.0,56.0,30.06,South,182,1.0,-999.0,68,-99.99,,,-99.99,,2013-06-07 23:24:00,
2013-06-07 16:33:00,67.0,56.0,30.06,South,169,2.0,-999.0,69,-99.99,,,-99.99,,2013-06-07 23:33:00,
2013-06-07 16:43:00,67.0,56.0,30.06,South,169,2.0,-999.0,69,-99.99,,,-99.99,,2013-06-07 23:43:00,
2013-06-07 16:58:00,67.0,57.0,30.06,SSE,150,1.0,-999.0,70,-99.99,,,-99.99,,2013-06-07 23:58:00,
2013-06-07 17:13:00,67.0,57.0,30.06,South,172,1.0,-999.0,70,-99.99,,,-99.99,,2013-06-08 00:13:00,
2013-06-07 17:32:00,67.0,57.0,30.06,South,172,0.0,-999.0,70,-99.99,,,-99.99,,2013-06-08 00:32:00,
2013-06-07 17:43:00,67.0,57.0,30.06,South,172,0.0,-999.0,70,-99.99,,,-99.99,,2013-06-08 00:43:00,
2013-06-07 17:56:00,67.0,57.0,30.07,South,172,0.0,-999.0,71,-99.99,,,-99.99,,2013-06-08 00:56:00,
2013-06-07 18:02:00,65.0,54.0,30.07,North,11,1.0,-999.0,68,-99.99,,,-99.99,,2013-06-08 01:02:00,
2013-06-07 18:12:00,65.0,54.0,30.07,North,11,1.0,-999.0,68,-99.99,,,-99.99,,2013-06-08 01:12:00,
2013-06-07 18:42:00,63.0,52.0,30.07,NNW,340,0.0,-999.0,67,-99.99,,,-99.99,,2013-06-08 01:42:00,
2013-06-07 18:58:00,63.0,51.0,30.07,North,351,0.0,-999.0,66,-99.99,,,-99.99,,2013-06-08 01:58:00,
2013-06-07 19:12:00,63.0,52.0,30.07,North,355,0.0,-999.0,67,-99.99,,,-99.99,,2013-06-08 02:12:00,
2013-06-07 19:23:00,63.0,52.0,30.08,North,355,0.0,-999.0,67,-99.99,,,-99.99,,2013-06-08 02:23:00,
2013-06-07 19:33:00,63.0,52.0,30.08,North,355,0.0,-999.0,67,-99.99,,,-99.99,,2013-06-08 02:33:00,
2013-06-07 19:43:00,63.0,52.0,30.08,North,355,0.0,-999.0,67,-99.99,,,-99.99,,2013-06-08 02:43:00,
2013-06-07 19:55:00,64.0,53.0,30.07,North,355,0.0,-999.0,67,-99.99,,,-99.99,,2013-06-08 02:55:00,
2013-06-07 20:03:00,63.0,53.0,30.07,NW,317,0.0,-999.0,69,-99.99,,,-99.99,,2013-06-08 03:03:00,
2013-06-07 20:12:00,63.0,53.0,30.07,NW,317,0.0,-999.0,69,-99.99,,,-99.99,,2013-06-08 03:12:00,
2013-06-07 20:24:00,63.0,53.0,30.06,NW,317,0.0,-999.0,69,-99.99,,,-99.99,,2013-06-08 03:24:00,
2013-06-07 20:33:00,62.0,52.0,30.06,NW,317,0.0,-999.0,71,-99.99,,,-99.99,,2013-06-08 03:33:00,
2013-06-07 21:03:00,62.0,53.0,30.07,North,355,0.0,-999.0,73,-99.99,,,-99.99,,2013-06-08 04:03:00,
2013-06-07 21:12:00,62.0,53.0,30.07,North,355,0.0,-999.0,73,-99.99,,,-99.99,,2013-06-08 04:12:00,
2013-06-07 21:22:00,61.0,53.0,30.07,North,350,0.0,-999.0,74,-99.99,,,-99.99,,2013-06-08 04:22:00,
2013-06-07 21:33:00,61.0,53.0,30.07,North,350,0.0,-999.0,75,-99.99,,,-99.99,,2013-06-08 04:33:00,
2013-06-07 21:42:00,61.0,53.0,30.07,North,350,0.0,-999.0,75,-99.99,,,-99.99,,2013-06-08 04:42:00,
2013-06-07 21:53:00,60.0,53.0,30.08,North,350,0.0,-999.0,77,-99.99,,,-99.99,,2013-06-08 04:53:00,
2013-06-07 22:02:00,60.0,53.0,30.09,North,350,0.0,-999.0,78,-99.99,,,-99.99,,2013-06-08 05:02:00,
2013-06-07 22:12:00,60.0,53.0,30.09,North,350,0.0,-999.0,78,-99.99,,,-99.99,,2013-06-08 05:12:00,
2013-06-07 22:22:00,59.0,52.0,30.09,North,350,0.0,-999.0,78,-99.99,,,-99.99,,2013-06-08 05:22:00,
2013-06-07 22:32:00,59.0,53.0,30.10,NNW,337,0.0,-999.0,80,-99.99,,,-99.99,,2013-06-08 05:32:00,
2013-06-07 22:42:00,59.0,53.0,30.10,NNW,337,0.0,-999.0,80,-99.99,,,-99.99,,2013-06-08 05:42:00,
2013-06-07 22:52:00,58.0,52.0,30.09,NNW,337,0.0,-999.0,80,-99.99,,,-99.99,,2013-06-08 05:52:00,
2013-06-07 23:01:00,57.0,51.0,30.10,NNW,337,0.0,-999.0,80,-99.99,,,-99.99,,2013-06-08 06:01:00,
2013-06-07 23:12:00,57.0,51.0,30.10,NNW,337,0.0,-999.0,80,-99.99,,,-99.99,,2013-06-08 06:12:00,
2013-06-07 23:22:00,57.0,51.0,30.10,NNW,345,0.0,-999.0,80,-99.99,,,-99.99,,2013-06-08 06:22:00,
2013-06-07 23:31:00,56.0,50.0,30.11,NNW,346,0.0,-999.0,81,-99.99,,,-99.99,,2013-06-08 06:31:00,
2013-06-07 23:42:00,56.0,50.0,30.11,NNW,346,0.0,-999.0,81,-99.99,,,-99.99,,2013-06-08 06:42:00,
2013-06-07 23:52:00,56.0,50.0,30.11,North,350,0.0,-999.0,81,-99.99,,,-99.99,,2013-06-08 06:52:00,